sat.trackr.live / text

‹ back to catalog

STARLINK-1991

NORAD 47587 · 2021-009AR

PAYLOAD ACTIVE UNKNOWN

§ Identity

Operator
Country
US
Launch date
2021-02-04
Launch site
AFETR
Launch vehicle
Mass (kg)
RCS (m²)

Purposes: comms

External: N2YO · Heavens-Above · Gunter

§ Orbital elements

Epoch: 2026-05-25T03:58:26.062752Z

Period
90.73 min
Inclination
53.0389°
Eccentricity
0.0005441
Mean motion
15.87159944 rev/d
Perigee alt
306.6 km
Apogee alt
313.9 km
Semi-major
6,688.4 km
B*
8.6386e-4
RAAN
311.2513°
Arg perigee
277.7705°
Mean anomaly
82.2701°
Rev number
29,354

§ Raw data

STARLINK-19911 47587U 21009AR  26145.16557943  .00235708  00000+0  86386-3 0  99992 47587  53.0389 311.2513 0005441 277.7705  82.2701 15.87159944293542

JSON: /api/v1/satellites/47587 · /tle

For live sub-satellite position, see the globe view (requires WebGL).

§ Visibility from observer

Set your observer location to see the next 7 days of passes ≥ 10°. The values pass through the URL so the page stays shareable.

No JS? Fill the form by hand. The geolocation button needs JavaScript.